Regional Weather Roundup
Issued by NWS

Home | Current Version | Previous Version | Text Only | Print | Product List | Glossary On
Versions: 1 2 3 4 5 6 7 8 9 10 11 12 13 14 15 16 17 18 19 20 21 22 23 24 25 26 27 28 29 30 31 32 33 34 35 36 37 38 39 40 41 42 43 44 45 46 47 48 49 50
000
ASUS44 KFWD 231215
RWRTX
NORTH TEXAS HOURLY WEATHER ROUNDUP
NATIONAL WEATHER SERVICE FORT WORTH TX
700 AM CDT SAT SEP 23 2017

NOTE: "FAIR" INDICATES FEW OR NO CLOUDS BELOW 12,000 FEET WITH NO
SIGNIFICANT WEATHER AND/OR OBSTRUCTIONS TO VISIBILITY.

TXZ118-119-231300-
DALLAS/FORT WORTH METROPLEX

CITY           SKY/WX    TMP DP  RH WIND       PRES   REMARKS
DFW AIRPORT    CLEAR     74  69  85 S5        29.93R
6HR MIN TEMP:  74; 6HR MAX TEMP:  80;

DALLAS LOVE    CLEAR     76  68  76 S6        29.94R
6HR MIN TEMP:  75; 6HR MAX TEMP:  81;

FTW MEACHAM    CLEAR     74  70  87 S7        29.93S
6HR MIN TEMP:  74; 6HR MAX TEMP:  81;

DAL-EXECUTIVE  CLEAR     71  68  90 CALM      29.94R
6HR MIN TEMP:  71; 6HR MAX TEMP:  77;

FTW-ALLIANCE   CLEAR     71  68  90 S3        29.94R
6HR MIN TEMP:  71; 6HR MAX TEMP:  78;

FTW-NAS-JRB    CLEAR     75  69  81 S6        29.94R
6HR MIN TEMP:  74; 6HR MAX TEMP:  81;

FTW-SPINKS     CLEAR     70  66  88 CALM      29.95S
ARLINGTON      CLEAR     69  68  96 CALM      29.94S
6HR MIN TEMP:  69; 6HR MAX TEMP:  78;

GRAND PRAIRIE  CLEAR     73  66  78 CALM      29.95S
ADDISON        CLEAR     75  68  78 SE5       29.95S
MESQUITE       CLEAR     68  66  94 CALM      29.95S
LANCASTER      CLEAR     67  62  84 CALM      29.96R
6HR MIN TEMP:  67; 6HR MAX TEMP:  74;

$$

TXZ091>094-102>105-117-120-121-131>134-231300-
NORTH CENTRAL TEXAS

CITY           SKY/WX    TMP DP  RH WIND       PRES   REMARKS
SHRMAN/DENISON CLEAR     72  67  85 SE8       29.97S
6HR MIN TEMP:  72; 6HR MAX TEMP:  76;

GAINESVILLE    CLEAR     69  66  90 CALM      29.97S
6HR MIN TEMP:  68; 6HR MAX TEMP:  74;

BOWIE          CLEAR     69  67  94 SE3       29.95R
6HR MIN TEMP:  69; 6HR MAX TEMP:  75;

BRIDGEPORT     CLEAR     69  68  98 CALM      29.96R
6HR MIN TEMP:  69; 6HR MAX TEMP:  77;

DECATUR        CLEAR     72  68  87 S6        29.94S
6HR MIN TEMP:  72; 6HR MAX TEMP:  78;

DENTON         CLEAR     71  69  93 SE5       29.94R
6HR MIN TEMP:  70; 6HR MAX TEMP:  77;

MCKINNEY       CLEAR     69  69 100 CALM      29.95S
6HR MIN TEMP:  69; 6HR MAX TEMP:  76;

BONHAM         CLEAR     67  66  96 CALM      29.96S
6HR MIN TEMP:  67; 6HR MAX TEMP:  72;

GREENVILLE     CLEAR     70  68  94 CALM      29.96S
ROCKWALL       CLEAR     72  70  93 CALM      29.96R
6HR MIN TEMP:  72; 6HR MAX TEMP:  76;

TERRELL        CLEAR     70  66  87 CALM      29.95S
6HR MIN TEMP:  69; 6HR MAX TEMP:  76;

WAXAHACHIE     CLEAR     68  68 100 CALM      29.96S
6HR MIN TEMP:  68; 6HR MAX TEMP:  76;

CLEBURNE       CLEAR     70  70 100 S5        29.96S
GRANBURY       CLEAR     72  68  86 E5        29.95S
6HR MIN TEMP:  72; 6HR MAX TEMP:  78;

$$

TXZ083>090-098>101-113>116-127>130-139>142-154-155-231300-
WESTERN NORTH TEXAS

CITY           SKY/WX    TMP DP  RH WIND       PRES   REMARKS
WICHITA FALLS  CLEAR     69  65  86 SE8       29.93R
6HR MIN TEMP:  68; 6HR MAX TEMP:  76;

WF-KICKAPOO    CLEAR     71  67  89 SE6       29.96R
6HR MIN TEMP:  71; 6HR MAX TEMP:  77;

VERNON         CLEAR     73  64  72 SE5       29.93R
6HR MIN TEMP:  73; 6HR MAX TEMP:  88;

ABILENE        CLEAR     70  67  90 S10       29.94R
6HR MIN TEMP:  70; 6HR MAX TEMP:  76;

ABILENE-DYESS  CLEAR     70  67  88 S8        29.92R
6HR MIN TEMP:  70; 6HR MAX TEMP:  77;

GRAHAM         CLEAR     71  71 100 SE3       29.93R
6HR MIN TEMP:  71; 6HR MAX TEMP:  79;

BRECKENRIDGE   CLEAR     72  69  89 SE6       29.94R
6HR MIN TEMP:  72; 6HR MAX TEMP:  80;

CISCO          MOCLDY    72  68  88 S12G17    29.96R
EASTLAND       CLEAR     68  67  96 SE5       29.95S
6HR MIN TEMP:  68; 6HR MAX TEMP:  76;

RANGER         CLOUDY    69  68  98 CALM      29.96R
6HR MIN TEMP:  64; 6HR MAX TEMP:  97;

MINERAL WELLS  CLEAR     69  66  90 SE5       29.93R
6HR MIN TEMP:  69; 6HR MAX TEMP:  75;

STEPHENVILLE   CLEAR     70  67  91 CALM      29.97S
6HR MIN TEMP:  70; 6HR MAX TEMP:  75;

COMANCHE       CLEAR     68  68 100 SE5       29.95S
6HR MIN TEMP:  68; 6HR MAX TEMP:  75;

BROWNWOOD      CLEAR     70  68  94 SE3       29.95R
COLEMAN        CLEAR     70  67  88 SE7       29.95S
6HR MIN TEMP:  70; 6HR MAX TEMP:  75;

$$

TXZ143>147-156>162-174-175-231300-
CENTRAL TEXAS

CITY           SKY/WX    TMP DP  RH WIND       PRES   REMARKS
WACO           CLEAR     70  67  90 SE3       29.94R
6HR MIN TEMP:  69; 6HR MAX TEMP:  78;

WACO-TSTC      CLEAR     68  66  94 CALM      29.94
WACO-MCGREGOR  CLEAR     69  66  90 S5        29.94S
6HR MIN TEMP:  68; 6HR MAX TEMP:  75;

HILLSBORO      CLEAR     72  68  89 SE5       29.95S
6HR MIN TEMP:  72; 6HR MAX TEMP:  78;

CORSICANA      CLEAR     71  69  93 SE5       29.96R
6HR MIN TEMP:  70; 6HR MAX TEMP:  74;

MEXIA          CLEAR     69  68  97 CALM      29.95R
6HR MIN TEMP:  68; 6HR MAX TEMP:  73;

HEARNE         CLEAR    N/A N/A N/A CALM      29.95R HAZE
CAMERON        CLEAR     69  68  98 CALM      29.94R FOG
6HR MIN TEMP:  68; 6HR MAX TEMP:  75;

TEMPLE         MOCLDY    72  72 100 SE6       29.95R
6HR MIN TEMP:  70; 6HR MAX TEMP:  76;

KILLEEN        CLOUDY    72  70  94 S6        29.94R
FORT HOOD      MOCLDY    68  68 100 SE5       29.91R
GATESVILLE     CLEAR     68  68 100 CALM      29.96R FOG
HAMILTON       MOCLDY    70  70 100 S7        29.96R FOG
6HR MIN TEMP:  70; 6HR MAX TEMP:  74;

LAMPASAS       CLOUDY    71  70  97 CALM      29.95R FOG
6HR MIN TEMP:  71; 6HR MAX TEMP:  76;

$$

TXZ095>097-106>112-122>126-135>138-148>153-164>167-231300-
EAST TEXAS

CITY           SKY/WX    TMP DP  RH WIND       PRES   REMARKS
PARIS          CLEAR     69  68  96 E6        29.97R
6HR MIN TEMP:  68; 6HR MAX TEMP:  73;

SULPHUR SPRNGS CLEAR     68  67  98 E3        29.98S
6HR MIN TEMP:  68; 6HR MAX TEMP:  74;

MOUNT PLEASANT CLEAR     65  65 100 CALM      29.98R
6HR MIN TEMP:  65; 6HR MAX TEMP:  72;

GILMER         CLEAR     67  67  99 CALM      29.96S FOG
6HR MIN TEMP:  67; 6HR MAX TEMP:  71;

MINEOLA        CLEAR     66  66 100 CALM      29.95S FOG
TYLER          CLEAR     72  70  94 MISG      29.95S
LONGVIEW       CLEAR     70  70 100 CALM      29.95R
MARSHALL       CLEAR     65  63  93 MISG      29.98R
6HR MIN TEMP:  65; 6HR MAX TEMP:  70;

ATHENS         PTCLDY    66  66 100 CALM      29.94S
PALESTINE      CLEAR     69  69 100 CALM      29.96R
JACKSONVILLE   CLEAR     71  70  98 CALM      29.97S
HENDERSON      CLEAR     67  67  98 CALM      29.96S FOG
6HR MIN TEMP:  67; 6HR MAX TEMP:  71;

CENTER         SUNNY     72  71  95 CALM      29.96S
6HR MIN TEMP:  72; 6HR MAX TEMP:  75;

NACOGDOCHES    CLEAR     68  67  96 CALM      29.95R FOG
6HR MIN TEMP:  67; 6HR MAX TEMP:  72;

$$

SUPPLEMENTAL OBSERVATIONS (NWS FORT WORTH AREA)

CITY           SKY/WX    TMP DP  RH WIND       PRES   REMARKS
DENISON DAM      N/A     68  64  88 E2          N/A
CADDO GRASSLND   N/A     70  64  83 CALM        N/A
PAT MAYSE LAKE   N/A     70  68  94 N2          N/A
GREENVILLE       N/A     70  66  88 S1          N/A
CEDAR HILL       N/A     72  66  83 SE5         N/A
LBJ GRASSLAND    N/A     73  68  83 SE6         N/A
POSSUM KINGDOM   N/A     72  66  83 SE6         N/A
GRANBURY         N/A     72  66  83 SE6         N/A



USA.gov is the U.S. government's official web portal to all federal, state and local government web resources and services.